| time (UTC) | temp C | wind direction | speed KPH | gust KPH | rain 1hr cm | rain 24hr cm | rain mn cm | humidity % | barometer mb |
| 20260507100027 | 21 | 338 | 1.6 | 8.0 | 0.00 | 0.00 | 0.00 | 34 | 1010.1 |
| 20260507094526 | 21 | 313 | 0.0 | 14.5 | 0.00 | 0.00 | 0.00 | 35 | 1010.2 |
| 20260507093023 | 21 | 112 | 0.0 | 9.7 | 0.00 | 0.00 | 0.00 | 41 | 1010.3 |
| 20260507091520 | 20 | 70 | 0.0 | 9.7 | 0.00 | 0.00 | 0.00 | 44 | 1010.4 |
| 20260507090018 | 20 | 331 | 3.2 | 9.7 | 0.00 | 0.00 | 0.00 | 42 | 1010.3 |
| 20260507084517 | 19 | 5 | 1.6 | 12.9 | 0.00 | 0.00 | 0.00 | 45 | 1010.2 |
| 20260507083010 | 17 | 21 | 0.0 | 3.2 | 0.00 | 0.00 | 0.00 | 52 | 1010.4 |
| 20260507081507 | 17 | 36 | 0.0 | 4.8 | 0.00 | 0.00 | 0.00 | 53 | 1010.3 |
| 20260507080005 | 16 | 53 | 0.0 | 6.4 | 0.00 | 0.00 | 0.00 | 54 | 1010.0 |
| 20260507074502 | 16 | 333 | 0.0 | 6.4 | 0.00 | 0.00 | 0.00 | 55 | 1010.2 |
| 20260507073100 | 16 | 47 | 0.0 | 9.7 | 0.00 | 0.00 | 0.00 | 56 | 1010.1 |
| 20260507071606 | 15 | 34 | 0.0 | 8.0 | 0.00 | 0.00 | 0.00 | 57 | 1010.0 |
| 20260507070055 | 15 | 54 | 0.0 | 1.6 | 0.00 | 0.00 | 0.00 | 57 | 1009.8 |
| 20260507064607 | 15 | 46 | 0.0 | 4.8 | 0.00 | 0.00 | 0.00 | 58 | 1009.6 |
| 20260507063056 | 15 | 61 | 0.0 | 3.2 | 0.00 | 0.00 | 0.00 | 59 | 1009.6 |
| 20260507061551 | 14 | 28 | 0.0 | 3.2 | 0.00 | 0.00 | 0.00 | 60 | 1009.7 |
| 20260507060050 | 14 | 85 | 0.0 | 0.0 | 0.00 | 0.00 | 0.00 | 61 | 1009.4 |
| 20260507054548 | 14 | 85 | 0.0 | 4.8 | 0.00 | 0.00 | 0.00 | 60 | 1009.3 |
| 20260507053045 | 14 | 23 | 0.0 | 9.7 | 0.00 | 0.00 | 0.00 | 61 | 1009.2 |
| 20260507051539 | 13 | 23 | 0.0 | 8.0 | 0.00 | 0.00 | 0.00 | 61 | 1009.1 |
| 20260507050040 | 13 | 34 | 0.0 | 3.2 | 0.00 | 0.00 | 0.00 | 61 | 1008.9 |
| 20260507044534 | 13 | 355 | 0.0 | 8.0 | 0.00 | 0.00 | 0.00 | 61 | 1008.8 |
| 20260507043032 | 13 | 5 | 0.0 | 6.4 | 0.00 | 0.00 | 0.00 | 62 | 1008.7 |
| 20260507041546 | 13 | 41 | 0.0 | 0.0 | 0.00 | 0.00 | 0.00 | 61 | 1008.6 |
| 20260507040028 | 13 | 11 | 0.0 | 4.8 | 0.00 | 0.00 | 0.00 | 62 | 1008.4 |
| 20260507034527 | 13 | 355 | 0.0 | 4.8 | 0.00 | 0.00 | 0.00 | 63 | 1008.4 |
| 20260507033031 | 13 | 69 | 0.0 | 0.0 | 0.00 | 0.00 | 0.00 | 64 | 1008.4 |
| 20260507031525 | 13 | 69 | 0.0 | 0.0 | 0.00 | 0.00 | 0.00 | 63 | 1008.4 |
| 20260507030025 | 13 | 69 | 0.0 | 3.2 | 0.00 | 0.00 | 0.00 | 63 | 1008.4 |
| 20260507024523 | 13 | 21 | 0.0 | 3.2 | 0.00 | 0.00 | 0.00 | 63 | 1008.3 |
| 20260507023021 | 13 | 360 | 0.0 | 4.8 | 0.00 | 0.00 | 0.00 | 61 | 1008.3 |
| 20260507021520 | 13 | 59 | 0.0 | 3.2 | 0.00 | 0.00 | 0.00 | 62 | 1008.3 |
| 20260507020021 | 14 | 57 | 0.0 | 3.2 | 0.00 | 0.00 | 0.00 | 61 | 1008.2 |
| 20260507014525 | 13 | 36 | 0.0 | 6.4 | 0.00 | 0.00 | 0.00 | 61 | 1008.3 |
| 20260507013034 | 13 | 74 | 0.0 | 8.0 | 0.00 | 0.00 | 0.00 | 61 | 1008.2 |
| 20260507011530 | 14 | 21 | 0.0 | 3.2 | 0.00 | 0.00 | 0.00 | 61 | 1008.3 |
| 20260507010013 | 15 | 26 | 0.0 | 6.4 | 0.00 | 0.00 | 0.00 | 59 | 1008.2 |
| 20260507004516 | 15 | 355 | 1.6 | 9.7 | 0.00 | 0.00 | 0.00 | 58 | 1008.2 |
| 20260507003011 | 15 | 13 | 0.0 | 4.8 | 0.00 | 0.00 | 0.00 | 58 | 1008.2 |
| 20260507001511 | 15 | 47 | 1.6 | 8.0 | 0.00 | 0.00 | 0.00 | 58 | 1008.3 |
| 20260507000022 | 15 | 63 | 0.0 | 9.7 | 0.00 | 0.00 | 0.00 | 58 | 1008.5 |
| 20260506234509 | 15 | 30 | 1.6 | 9.7 | 0.00 | 0.00 | 0.00 | 59 | 1008.5 |
| 20260506233008 | 15 | 70 | 0.0 | 8.0 | 0.00 | 0.00 | 0.00 | 57 | 1008.5 |
| 20260506231505 | 15 | 36 | 0.0 | 8.0 | 0.00 | 0.00 | 0.00 | 57 | 1008.4 |
| 20260506230004 | 15 | 31 | 1.6 | 8.0 | 0.00 | 0.00 | 0.00 | 56 | 1008.4 |
| 20260506224501 | 16 | 9 | 1.6 | 8.0 | 0.00 | 0.00 | 0.00 | 56 | 1008.3 |
| 20260506223126 | 16 | 5 | 0.0 | 4.8 | 0.00 | 0.00 | 0.00 | 55 | 1008.2 |
| 20260506221603 | 16 | 49 | 0.0 | 6.4 | 0.00 | 0.00 | 0.00 | 55 | 1008.0 |
| 20260506220057 | 16 | 53 | 0.0 | 8.0 | 0.00 | 0.00 | 0.00 | 54 | 1007.9 |
| 20260506214607 | 16 | 81 | 1.6 | 14.5 | 0.00 | 0.00 | 0.00 | 54 | 1007.9 |
| 20260506213055 | 16 | 42 | 1.6 | 17.7 | 0.00 | 0.00 | 0.00 | 54 | 1008.0 |
| 20260506211556 | 16 | 5 | 0.0 | 4.8 | 0.00 | 0.00 | 0.00 | 54 | 1007.9 |
| 20260506210057 | 16 | 355 | 0.0 | 3.2 | 0.00 | 0.00 | 0.00 | 53 | 1007.8 |
| 20260506204552 | 16 | 37 | 0.0 | 8.0 | 0.00 | 0.00 | 0.00 | 53 | 1007.6 |
| 20260506203100 | 16 | 36 | 1.6 | 8.0 | 0.00 | 0.00 | 0.00 | 53 | 1007.6 |
| 20260506201551 | 16 | 5 | 0.0 | 8.0 | 0.00 | 0.00 | 0.00 | 53 | 1007.4 |
| 20260506200130 | 16 | 35 | 0.0 | 6.4 | 0.00 | 0.00 | 0.00 | 53 | 1007.5 |
| 20260506194550 | 16 | 59 | 0.0 | 0.0 | 0.00 | 0.00 | 0.00 | 53 | 1007.4 |
| 20260506193051 | 16 | 59 | 0.0 | 17.7 | 0.00 | 0.00 | 0.00 | 52 | 1007.2 |
| 20260506191549 | 16 | 51 | 0.0 | 6.4 | 0.00 | 0.00 | 0.00 | 52 | 1007.1 |
| 20260506190048 | 16 | 14 | 0.0 | 6.4 | 0.00 | 0.00 | 0.00 | 51 | 1006.8 |
| 20260506184648 | 16 | 344 | 1.6 | 8.0 | 0.00 | 0.00 | 0.00 | 51 | 1006.6 |
| 20260506183047 | 16 | 17 | 0.0 | 14.5 | 0.00 | 0.00 | 0.00 | 52 | 1006.5 |
| 20260506181546 | 17 | 51 | 0.0 | 4.8 | 0.00 | 0.00 | 0.00 | 52 | 1006.5 |
| 20260506180051 | 17 | 40 | 0.0 | 14.5 | 0.00 | 0.00 | 0.00 | 52 | 1006.3 |
| 20260506174546 | 17 | 77 | 4.8 | 14.5 | 0.00 | 0.00 | 0.00 | 51 | 1006.3 |
| 20260506173050 | 17 | 84 | 0.0 | 8.0 | 0.00 | 0.00 | 0.00 | 51 | 1006.2 |
| 20260506171552 | 18 | 61 | 3.2 | 14.5 | 0.00 | 0.00 | 0.00 | 50 | 1006.2 |
| 20260506170044 | 18 | 72 | 1.6 | 17.7 | 0.00 | 0.00 | 0.00 | 50 | 1006.2 |
| 20260506164542 | 18 | 67 | 1.6 | 20.9 | 0.00 | 0.00 | 0.00 | 50 | 1006.3 |
| 20260506163047 | 19 | 38 | 1.6 | 16.1 | 0.00 | 0.00 | 0.00 | 49 | 1006.6 |
| 20260506161551 | 20 | 18 | 1.6 | 19.3 | 0.00 | 0.00 | 0.00 | 47 | 1006.6 |
| 20260506160037 | 20 | 28 | 1.6 | 20.9 | 0.00 | 0.00 | 0.00 | 45 | 1006.9 |
| 20260506154537 | 21 | 13 | 6.4 | 19.3 | 0.00 | 0.00 | 0.00 | 45 | 1006.9 |
| 20260506153038 | 20 | 47 | 6.4 | 20.9 | 0.00 | 0.00 | 0.00 | 46 | 1007.0 |
| 20260506151538 | 20 | 295 | 4.8 | 22.5 | 0.00 | 0.00 | 0.00 | 45 | 1007.0 |
| 20260506150036 | 21 | 360 | 4.8 | 22.5 | 0.00 | 0.00 | 0.00 | 43 | 1007.0 |
| 20260506144534 | 22 | 27 | 3.2 | 29.0 | 0.00 | 0.00 | 0.00 | 42 | 1007.1 |
| 20260506143033 | 22 | 38 | 9.7 | 27.4 | 0.00 | 0.00 | 0.00 | 42 | 1007.1 |
| 20260506141532 | 22 | 338 | 8.0 | 24.1 | 0.00 | 0.00 | 0.00 | 42 | 1007.0 |
| 20260506140032 | 21 | 81 | 8.0 | 25.7 | 0.00 | 0.00 | 0.00 | 42 | 1007.0 |
| 20260506134605 | 21 | 22 | 9.7 | 25.7 | 0.00 | 0.00 | 0.00 | 43 | 1007.3 |
| 20260506133031 | 22 | 346 | 8.0 | 22.5 | 0.00 | 0.00 | 0.00 | 39 | 1007.3 |
| 20260506131532 | 23 | 40 | 8.0 | 32.2 | 0.00 | 0.00 | 0.00 | 38 | 1007.1 |
| 20260506130028 | 23 | 329 | 6.4 | 20.9 | 0.00 | 0.00 | 0.00 | 39 | 1007.3 |
| 20260506124528 | 22 | 299 | 8.0 | 24.1 | 0.00 | 0.00 | 0.00 | 40 | 1007.4 |
| 20260506123026 | 22 | 355 | 8.0 | 17.7 | 0.00 | 0.00 | 0.00 | 38 | 1007.3 |
| 20260506121525 | 22 | 46 | 9.7 | 27.4 | 0.00 | 0.00 | 0.00 | 39 | 1007.6 |
| 20260506120025 | 22 | 17 | 12.9 | 24.1 | 0.00 | 0.00 | 0.00 | 38 | 1007.5 |
| 20260506114532 | 22 | 10 | 8.0 | 19.3 | 0.00 | 0.00 | 0.00 | 39 | 1007.4 |
| 20260506113026 | 23 | 335 | 6.4 | 17.7 | 0.00 | 0.00 | 0.00 | 38 | 1007.6 |
| 20260506111521 | 22 | 88 | 9.7 | 16.1 | 0.00 | 0.00 | 0.00 | 42 | 1007.7 |
| 20260506110019 | 21 | 355 | 8.0 | 20.9 | 0.00 | 0.00 | 0.00 | 42 | 1007.9 |
| 20260506104518 | 20 | 59 | 8.0 | 20.9 | 0.00 | 0.00 | 0.00 | 45 | 1007.9 |
| 20260506103025 | 20 | 9 | 6.4 | 20.9 | 0.00 | 0.00 | 0.00 | 45 | 1008.2 |
| 20260506101519 | 20 | 333 | 6.4 | 24.1 | 0.00 | 0.00 | 0.00 | 45 | 1008.3 |